User: anonymous   Login
Location: Unspecified
(0.0000°N, 0.0000°E)
Time: 04:31:29
(UTC+00:00)
Language:

Meteosat 2 - Orbit

View from above orbital plane
View from above orbital plane
View from above satellite
View from above satellite

Ground track
Ground track

The orbit data is extracted from the following two-line orbital elements,

1 12544U 81057A   18350.61260578 -.00000051  00000-0  00000+0 0  9995
2 12544  14.5088 342.0418 0035854 312.1649  42.7191  0.98724247 96830
Epoch (UTC): 16 December 2018 14:42:09
Eccentricity: 0.0035854
inclination: 14.5088°
perigee height: 36073 km
apogee height: 36378 km
right ascension of ascending node: 342.0418°
argument of perigee: 312.1649°
revolutions per day: 0.98724247
mean anomaly at epoch: 42.7191°
orbit number at epoch: 9683

The dashed part of the orbit path shows where the satellite is in the earth's shadow,  

DLR